Regional Weather Roundup
Issued by NWS

Home | Current Version | Previous Version | Graphics & Text | Print | Product List | Glossary Off
Versions: 1 2 3 4 5 6 7 8 9 10 11 12 13 14 15 16 17 18 19 20 21 22 23 24 25 26 27 28 29 30 31 32 33 34 35 36 37 38 39 40 41 42 43 44 45 46 47 48 49 50

000
ASUS43 KLSX 220707
RWRMO

WEATHER SUMMARY FOR MISSOURI
NATIONAL WEATHER SERVICE SPRINGFIELD MO
100 AM CST MON DEC 22 2014

NOTE: "FAIR" INDICATES FEW OR NO CLOUDS BELOW 12,000 FEET WITH NO
       SIGNIFICANT WEATHER AND/OR OBSTRUCTIONS TO VISIBILITY.
       CURRENT SKY AND/OR WEATHER CONDITIONS ARE NOT AVAILABLE FOR
       CHILLICOTHE AND FARMINGTON.

MOZ001>031-035>038-043-044-053-054-220800-
...NORTHERN AND WESTERN MISSOURI...

CITY           SKY/WX    TMP DP  RH WIND       PRES   REMARKS
KANSAS CTY INT CLOUDY    42  38  85 SE15      29.70F
KANSAS C DTWN  CLOUDY    44  37  76 SE9       29.72F
LEE`S SUMMIT   CLOUDY    42  37  82 SE8       29.73F
ST JOSEPH      CLOUDY    43  39  86 SE10      29.70F
CHILLICOTHE      N/A     42  37  82 SE9       29.77F
KIRKSVILLE     CLOUDY    39  36  89 SE9       29.81F

$$
MOZ066>068-077>081-088>096-101>105-220800-
...SOUTHWEST MISSOURI...

CITY           SKY/WX    TMP DP  RH WIND       PRES   REMARKS
SPRINGFIELD    CLOUDY    42  36  79 SE17      29.75F
JOPLIN         CLOUDY    43  40  89 SE9       29.72F FOG

$$
MOZ032>034-039>042-045>050-055>058-069>072-220800-
...CENTRAL MISSOURI...

CITY           SKY/WX    TMP DP  RH WIND       PRES   REMARKS
COLUMBIA       CLOUDY    41  34  76 SE12      29.83F
JEFFERSON CITY CLOUDY    43  34  70 SE9       29.85F
ROLLA          CLOUDY    39  33  79 SE7       29.83F
SEDALIA        CLOUDY    43  36  76 SE13      29.78F
WHITEMAN AFB   CLOUDY    42  36  78 S10       29.76F
WARRENSBURG    CLOUDY    41  36  81 SE9       29.75F
OSAGE BEACH    CLOUDY    43  34  70 S9        29.81F

$$
MOZ051-052-059>065-220800-
...EAST CENTRAL MISSOURI...

CITY           SKY/WX    TMP DP  RH WIND       PRES   REMARKS
ST LOUIS INTL  CLOUDY    43  31  62 SE10      29.90F
SPIRIT OF STL  CLOUDY    42  32  67 SE5       29.89F
ST CHARLES     CLOUDY    40  34  79 E7        29.91F

$$
MOZ072>076-082>087-097>100-106>115-220800-
...SOUTH CENTRAL AND SOUTHEAST MISSOURI...

CITY           SKY/WX    TMP DP  RH WIND       PRES   REMARKS
CAPE GIRARDEAU CLOUDY    43  33  68 SE9       29.93F
FARMINGTON     CLOUDY    41  32  70 E7        29.90F
POPLAR BLUFF   CLOUDY    42  33  70 E3        29.89F
WEST PLAINS    CLOUDY    40  33  76 E6        29.84F

$$


USA.gov is the U.S. government's official web portal to all federal, state and local government web resources and services.